Hourly Data Report for November 04, 2020

VICTORIA UNIVERSITY CS
BRITISH COLUMBIA
Current Station Operator: ECCC - MSC

48°27'25.200" N
123°18'16.600" W
60.10 m
1018598
71783
WYJ

Download Data

Hourly Data (November 2020)
Hourly Data Report for November 4, 2020
TIME
LST
Temp Definition
°C
Dew Point Definition
°C
Rel Hum Definition
%
Precip. Amount Definition
mm

Wind Dir Definition
10's deg

Wind Spd Definition
km/h
Visibility Definition
km
Stn Press Definition
kPa
Hmdx Definition


Wind Chill Definition


Weather Definition


00:00 11.8 11.8 100 1.4 11 4   100.35     LegendNANA
01:00 10.4 10.4 100 0.3 12 2   100.34     LegendNANA
02:00 9.8 9.8 100 0.0 11 2   100.39     LegendNANA
03:00 9.4 9.4 100 0.0 13 3   100.37     LegendNANA
04:00 9.4 9.4 100 0.0 0 1   100.37     LegendNANA
05:00 11.4 11.3 100 0.0 11 4   100.40     LegendNANA
06:00 11.2 11.1 100 0.0 11 2   100.45     LegendNANA
07:00 11.4 11.4 100 0.0 8 5   100.48     LegendNANA
08:00 11.1 11.0 100 0.0 9 4   100.57     LegendNANA
09:00 11.6 11.6 100 0.0 13 3   100.63     LegendNANA
10:00 11.7 11.5 99 0.2 13 4   100.64     LegendNANA
11:00 11.0 10.9 99 0.0 14 3   100.70     LegendNANA
12:00 11.9 11.7 99 0.0 12 4   100.67     LegendNANA
13:00 12.0 11.9 99 0.0 4 2   100.67     LegendNANA
14:00 13.7 13.4 98 0.0 12 1   100.59     LegendNANA
15:00 14.5 14.1 98 0.0 16 4   100.50     LegendNANA
16:00 13.1 13.1 100 1.7 19 3   100.54     LegendNANA
17:00 13.1 13.1 100 0.8 23 3   100.49     LegendNANA
18:00 13.0 13.0 100 0.5 24 7   100.48     LegendNANA
19:00 13.6 13.5 100 0.0 20 5   100.51     LegendNANA
20:00 15.1 13.1 88 0.0 25 17   100.48     LegendNANA
21:00 14.7 12.9 89 0.0 26 17   100.50     LegendNANA
22:00 13.7 13.7 100 0.7 25 10   100.59     LegendNANA
23:00 14.3 12.1 87 0.5 25 16   100.65     LegendNANA

Notes on Data Quality.

Legend

  • E = Estimated
  • M = Missing
  • NA = Not Available*
  • [empty] = Indicates an unobserved value
Date modified: